User: anonymous   Login
Location: Plum
(40.5000°N, 79.7500°W)
Time: 19:48:49
(UTC-04:00)
Language:

Cosmos 1825 - Orbit

View from above orbital plane
View from above orbital plane
View from above satellite
View from above satellite

Ground track
Ground track

The orbit data is extracted from the following two-line orbital elements,

1 17566U 87024A   16273.15356960  .00001910  00000-0  92112-4 0  9990
2 17566  82.5079 188.8373 0005480  56.9066 303.2693 15.18106905614233
Epoch (UTC): 29 September 2016 03:41:08
Eccentricity: 0.0005480
inclination: 82.5079°
perigee height: 508 km
apogee height: 515 km
right ascension of ascending node: 188.8373°
argument of perigee: 56.9066°
revolutions per day: 15.18106905
mean anomaly at epoch: 303.2693°
orbit number at epoch: 61423

The dashed part of the orbit path shows where the satellite is in the earth's shadow,  

DLR